Location: ?
(35.4554°N, 139.3092°E)
Time: 21:04:52
(UTC+00:00)

CZ-4C R/B - Pass Details

Date: 21 April 2021
Orbit: 612 x 1390 km, 63.4° (Epoch: 10 May)

Event Time Altitude Azimuth Distance (km) Brightness Sun altitude
Rises 16:52:11 0° 331° (NNW) 3,933 5.9 -33.3°
Reaches altitude 10° 16:54:45 10° 334° (NNW) 3,072 5.3 -32.9°
Maximum altitude 17:02:18 66° 57° (ENE) 1,399 3.3 -31.9°
Drops below altitude 10° 17:10:48 10° 138° (SE) 3,441 5.3 -30.8°
Sets 17:13:49 0° 141° (SE) 4,429 5.9 -30.3°
